Regional Weather Roundup
Issued by NWS

Home | Current Version | Previous Version | Text Only | Print | Product List | Glossary On
Versions: 1 2 3 4 5 6 7 8 9 10 11 12 13 14 15 16 17 18 19 20 21 22 23 24 25 26 27 28 29 30 31 32 33 34 35 36 37 38 39 40 41 42 43 44 45 46 47 48 49 50
270
ASUS45 KREV 201610
RWRNV
NEVADA REGIONAL WEATHER ROUNDUP
NATIONAL WEATHER SERVICE RENO NV
800 AM PST MON FEB 20 2017

NOTE: "FAIR" INDICATES FEW OR NO CLOUDS BELOW 12,000 FEET WITH NO
SIGNIFICANT WEATHER AND/OR OBSTRUCTIONS TO VISIBILITY.

NVZ001-003-004-201700-
WESTERN NEVADA

CITY           SKY/WX    TMP DP  RH WIND       PRES   REMARKS
RENO           RAIN      43  38  82 SW10      29.91R
MINDEN         LGT RAIN  39  37  93 S8        29.92R
PYRAMID LAKE     N/A     45 N/A N/A S22         N/A
FALLON         LGT RAIN  47  40  76 S10       29.89R
LOVELOCK       RAIN      42  41  96 CALM      29.89R FOG
HAWTHORNE      PTSUNNY   50  37  62 SE22      29.92R
$$

NVZ002-CAZ072-073-201700-
NORTHERN AND CENTRAL SIERRA

CITY           SKY/WX    TMP DP  RH WIND       PRES   REMARKS
S. LAKE TAHOE  RAIN      36  34  92 S6        29.90R FOG
TRUCKEE        LGT SNOW  32  32 100 N3        29.92R
SQUAW VLY 8000   N/A     32  32 100 W13         N/A
SUSANVILLE     LGT RAIN  43  37  81 SE8       29.79R
MAMMOTH LAKES  LGT SNOW  32  32 100 CALM      30.05R VSB 1
BRIDGEPORT     LGT SNOW  35  31  85 VRB3      29.92R FOG
$$

NVZ030-031-036-201700-
NORTHERN NEVADA

CITY           SKY/WX    TMP DP  RH WIND       PRES   REMARKS
ELKO           CLOUDY    44  32  62 S20G28    29.94R
WINNEMUCCA     LGT RAIN  43  41  93 S13       29.87R
WENDOVER       MOSUNNY   43  34  70 NE9       30.00R
$$

NVZ035-037-201700-
CENTRAL NEVADA

CITY           SKY/WX    TMP DP  RH WIND       PRES   REMARKS
ELY            CLOUDY    39  33  79 S17       30.09R
EUREKA           N/A     41  32  70 S23G29    30.00R
$$

NVZ013-014-201700-
SOUTH CENTRAL NEVADA

CITY           SKY/WX    TMP DP  RH WIND       PRES   REMARKS
TONOPAH        CLOUDY    41  38  89 S16       30.06S
$$

NVZ017-020-022-201700-
SOUTHERN NEVADA

CITY           SKY/WX    TMP DP  RH WIND       PRES   REMARKS
LAS VEGAS      PTSUNNY   56  44  64 S8        30.11R
N. LAS VEGAS   CLOUDY    55  47  74 SE7       30.13R
NELLIS AFB     PTSUNNY   55  46  71 SE17      30.13R
HENDERSON      PTSUNNY   55  45  68 S12       30.15R
MERCURY        CLOUDY    50  44  80 E13       30.11R
$$




USA.gov is the U.S. government's official web portal to all federal, state and local government web resources and services.